Regional Weather Roundup
Issued by NWS San Diego, CA

Home | Current Version | Previous Version | Text Only | Print | Product List | Glossary On
Versions: 1 2 3 4 5 6 7 8 9 10 11 12 13 14 15 16 17 18 19 20 21 22 23 24 25 26 27 28 29 30 31 32 33 34 35 36 37 38 39 40 41 42 43 44 45 46 47 48 49 50
000
ASUS46 KSGX 132011
RWRSGX

SAN DIEGO HOURLY WEATHER ROUNDUP
NATIONAL WEATHER SERVICE SAN DIEGO CA
1200 PM PST SAT FEB 13 2016

NOTE: "FAIR" INDICATES FEW OR NO CLOUDS BELOW 12,000 FEET WITH NO
SIGNIFICANT WEATHER AND/OR OBSTRUCTIONS TO VISIBILITY.

CAZ042-043-060-061-PZZ750-775-132100-

GREATER SAN DIEGO AREA

CITY           SKY/WX    TMP DP  RH WIND       PRES   REMARKS
LINDBERGH FLD  PTSUNNY   71  52  50 NW7       30.07F
POINT LOMA       N/A     62  52  69 W14         N/A
NATIONAL CITY    N/A     66  52  59 SW8       30.07F
CHULA VISTA      N/A     73  54  52 W3        29.99F
IMPERIAL BEACH SUNNY     65  54  67 W12       30.07F HAZE
BROWN FIELD    SUNNY     77  42  28 W6        30.05F
MIRAMAR MCAS   MOSUNNY   80  34  19 VRB3      30.05F
MONTGOMERY FLD SUNNY     77  35  21 CALM      30.06F

$$

NORTH SAN DIEGO COUNTY

CITY           SKY/WX    TMP DP  RH WIND       PRES   REMARKS
CAMP PENDLETON SUNNY     72  48  42 SW7       30.04F
OCEANSIDE AP   SUNNY     66  49  54 W9        30.05F
OCEANSIDE HBR    N/A     59  54  83 W7        30.09F
VISTA            N/A     73  44  34 W1        30.04F
CARLSBAD       SUNNY     67  50  54 W9        30.06F
DEL MAR          N/A     63  56  77 CALM      30.09F
FALLBROOK        N/A     77  42  28 CALM      30.04F
ESCONDIDO        N/A     80  40  24 SW3       30.05F
SAN MARCOS       N/A     77  41  27 W5        30.03F
POWAY            N/A     80  41  24 CALM      30.07F

$$

EAST SAN DIEGO COUNTY

CITY           SKY/WX    TMP DP  RH WIND       PRES   REMARKS
RAMONA         SUNNY     78  38  23 NW6       30.07F
SANTEE LAKES     N/A     80  41  24 CALM      30.04F
LA MESA          N/A     77  35  22 CALM      29.99F
JAMUL            N/A     80  46  30 CALM      30.06F
DESCANSO N       N/A     74  34  22 W6        29.94F
MT. LAGUNA OBS   N/A     62  11  13 CALM      29.78F
CAMPO            N/A     76  33  21 SW12      30.07F

$$

ORANGE COUNTY AND THE LOS ANGELES BASIN

CITY           SKY/WX    TMP DP  RH WIND       PRES   REMARKS
JOHN WAYNE AP  MOSUNNY   67  53  61 SW5       30.05F
LAGUNA BEACH     N/A     59  54  83 S3        30.02F
LAKE FOREST FR   N/A     77  41  27 CALM      29.93F
HUNTINGTON BCH   N/A     58  57  95 SW3       30.09F
LOS ALAMITOS   MOSUNNY   61  61  98 S7        30.06F
FULLERTON      SUNNY     71  49  45 SW6       30.05F
LONG BEACH     SUNNY     67  53  61 S5        30.06F
L.A. AP        MOSUNNY   61  53  75 W7        30.06F HAZE
L.A. DOWNTOWN  MOSUNNY   75  52  44 CALM      30.04F HAZE

$$

THE INLAND EMPIRE

CITY           SKY/WX    TMP DP  RH WIND       PRES   REMARKS
CORONA         SUNNY     74  41  30 CALM      30.05F HAZE
CHINO          MOSUNNY   77  32  19 CALM      30.06F
ONTARIO        MOSUNNY   76  27  16 S3        30.06F
RIVERSIDE AP   MOSUNNY   76  30  18 W3        30.06F
MORENO VALLEY    N/A     78  36  21 CALM      28.20F
MARCH ARB      SUNNY     74  31  20 SE2       30.07F
HORSETHIEF CYN   N/A     78  25  14 E5        30.08F
PERRIS           N/A     73  35  24 CALM      30.11F
HEMET EAST       N/A     74  29  19 CALM      29.95F
FRENCH VALLEY  FAIR      75  36  23 CALM      30.07F
TEMECULA         N/A     72  45  37 CALM      30.04F

$$

SAN BERNARDINO AND RIVERSIDE COUNTY MOUNTAINS

CITY           SKY/WX    TMP DP  RH WIND       PRES   REMARKS
BIG BEAR AP    MOSUNNY   59  16  18 E9        30.29F
PINE COVE        N/A     62  18  18 CALM      30.06F

$$

SOUTHERN DESERT INCLUDING THE COACHELLA VALLEY

CITY           SKY/WX    TMP DP  RH WIND       PRES   REMARKS
PALM SPRINGS   MOSUNNY   81  25  12 E3        30.04F
THOUSAND PALMS   N/A     82  30  15 SE3       30.00F
PALM DESERT      N/A     85  31  14 CALM        N/A
THERMAL        MOSUNNY   82  26  13 VRB5      30.00F
BLYTHE         SUNNY     74  30  19 VRB3      30.06F
IMPERIAL AP    SUNNY     84  28  13 VRB3      30.01F
EL CENTRO NAS  MOSUNNY   82  22  11 E3        30.04F
YUMA AZ        SUNNY     82  28  14 N12       30.03F
MEXICALI       SUNNY     82  18   9 CALM      30.04

$$

UPPER DESERT

CITY           SKY/WX    TMP DP  RH WIND       PRES   REMARKS
VICTORVILLE AP MOSUNNY   68  21  17 CALM      30.18F
HESPERIA         N/A     69  29  22 CALM      30.27F
APPLE VALLEY     N/A     71  23  16 CALM      30.14F
PALMDALE       SUNNY     68  29  23 CALM      30.18F
LANCASTER      SUNNY     67  30  25 CALM      30.17F
EDWARDS AFB    PTSUNNY   64  29  26 VRB3      30.15F
DAGGETT        SUNNY     71  25  17 W9        30.14F
29 PALMS N     MOSUNNY   73  18  12 N3        30.18F
NEEDLES        SUNNY     75  27  17 CALM      30.08F

$$

REGIONAL REPORTS

CITY           SKY/WX    TMP DP  RH WIND       PRES   REMARKS
SANTA BARBARA  MOSUNNY   61  54  77 S5        30.07F HAZE
SANDBERG       SUNNY     66  29  24 NE7G16    30.24F
LAS VEGAS NV   PTSUNNY   69  22  16 VRB3      30.12F
PHOENIX AZ     MOSUNNY   81  25  12 E5        30.03F
TIJUANA        SUNNY     77  28  16 CALM      30.08
ENSENADA NW      N/A     63  32  31 NW7       30.04S

$$

OFFSHORE ISLANDS

CITY           SKY/WX    TMP DP  RH WIND       PRES   REMARKS
CATALINA ARPT  SUNNY     75  32  20 VRB5      30.12S
SAN NICOLAS IS SUNNY    N/A N/A N/A S8        30.09S

$$

MARINE AND OFFSHORE BUOY REPORTS

STATION/POSITION SKY/WX   TEMP    WIND        PRES    SWELL
                          AIR SEA DIR/SP/G            HT/PER/DIR
                          (F)     (DEG/KT/KT) (MB)    (FT/S/D)
TANNER BANKS               59 60  300/  8/ 12 1019.1F  11/310/16
S CLEMENTE BASIN           55 62  270/  4/  8 1018.9F  10/290/17
SAN NICOLAS IS.               59                N/A    10/290/17
SO. S. ROSA ISLA           56 60              1018.5F
W. S. BARBARA CH           60 58  320/ 19/ 23 1017.9F  11/290/16
M. S. BARBARA CH           54 59   CALM  /  4 1019.5F
S. MONICA BASIN            55 61  140/  2/  4 1018.8F   5/250/17
S PEDRO CHANNEL               60                N/A     5/260/17
DANA POINT                    62                N/A     5/250/14
OCEANSIDE OFFSHR              62                N/A     3/240/15
TORREY PINES OTR              62                N/A     5/280/18
LA JOLLA 1                 58 61  320/  1/  2 1018.3F
SAN DIEGO BAY                 61              1018.9F
POINT LOMA SOUTH              61                N/A     7/270/17

$$




USA.gov is the U.S. government's official web portal to all federal, state and local government web resources and services.